This is the latest recevied weather packets stored in our database for station/object IW1CGW-23. If no packets are shown the sender has not sent any weather packets the latest 10 day(s).
| Time | Temp. | Humidity | Pressure | Rain* | Wind** | Luminosity | Snow |
|---|---|---|---|---|---|---|---|
| 1777689560 | 13.33° C | 58% | 1026.4 hPa | - | - | - | - |
| 1777687216 | 13.33° C | 58% | 1026.5 hPa | - | - | - | - |
| 1777684874 | 13.33° C | 58% | 1026.2 hPa | - | - | - | - |
| 1777682530 | 13.89° C | 58% | 1026.1 hPa | - | - | - | - |
| 1777680187 | 14.44° C | 58% | 1026.2 hPa | - | - | - | - |
| 1777677844 | 14.44° C | 59% | 1026.4 hPa | - | - | - | - |
| 1777677062 | 14.44° C | 60% | 1026.2 hPa | - | - | - | - |
| 1777676281 | 14.44° C | 61% | 1026.1 hPa | - | - | - | - |
| 1777675499 | 15° C | 61% | 1026.1 hPa | - | - | - | - |
| 1777673936 | 15° C | 62% | 1026.1 hPa | - | - | - | - |
| 1777671591 | 15.56° C | 64% | 1025.8 hPa | - | - | - | - |
| 1777670809 | 15.56° C | 65% | 1025.8 hPa | - | - | - | - |
| 1777670027 | 15.56° C | 66% | 1025.7 hPa | - | - | - | - |
| 1777665336 | 16.11° C | 68% | 1025.1 hPa | - | - | - | - |
| 1777663771 | 16.11° C | 68% | 1024.8 hPa | - | - | - | - |
| 1777661425 | 16.67° C | 67% | 1024.4 hPa | - | - | - | - |
| 1777660642 | 16.67° C | 66% | 1024.4 hPa | - | - | - | - |
| 1777659860 | 17.22° C | 65% | 1024.2 hPa | - | - | - | - |
| 1777657512 | 17.78° C | 63% | 1024 hPa | - | - | - | - |
| 1777656728 | 18.33° C | 63% | 1024 hPa | - | - | - | - |
| 1777654378 | 18.89° C | 61% | 1023.9 hPa | - | - | - | - |
| 1777653595 | 18.89° C | 61% | 1024 hPa | - | - | - | - |
| 1777652810 | 18.89° C | 61% | 1024 hPa | - | - | - | - |
| 1777649675 | 19.44° C | 61% | 1024.5 hPa | - | - | - | - |
| 1777648891 | 19.44° C | 60% | 1024.4 hPa | - | - | - | - |
* Rain since midnight (hover to see other rain measurements)
** Current wind speed in m/s (hover to see current wind gust speed)